Hourly Data Report for October 22, 2016

All times are specified in Local Standard Time (LST). Add 1 hour to adjust for Daylight Saving Time where and when it is observed.

KUGLUKTUK A
NUNAVUT

67°49'00.000" N
115°08'38.000" W
22.60 m
2300903
71938
YCO

Download Data

Hourly Data (October 2016)
Hourly Data Report for October 22, 2016
Temp Definition
°C
Dew Point Temp Definition
°C
Rel Hum Definition
%
Wind Dir Definition
10's deg

Wind Spd Definition
km/h
Visibility Definition
km
Stn Press Definition
kPa
Hmdx Definition


Wind Chill Definition


Weather Definition


TIME
00:00 Legend Double Dagger -10.9 -13.0 85 20 18 24.1 101.14   -19 LegendNANA
01:00 Legend Double Dagger -10.3 -12.2 86 20 18 24.1 101.16   -18 LegendNANA
02:00 Legend Double Dagger -11.4 -13.7 83 20 17 24.1 101.21   -19 Mainly Clear
03:00 Legend Double Dagger -12.2 -14.5 83 22 11 24.1 101.22   -18 LegendNANA
04:00 Legend Double Dagger -10.3 -12.5 84 26 6 24.1 101.26   -14 LegendNANA
05:00 Legend Double Dagger -8.4 -11.1 81 21 16 24.1 101.30   -15 Mostly Cloudy
06:00 Legend Double Dagger -7.5 -10.1 82 18 11 24.1 101.33   -13 LegendNANA
07:00 Legend Double Dagger -6.6 -9.0 83 22 7 24.1 101.35   -10 LegendNANA
08:00 Legend Double Dagger -5.6 -8.5 80 31 3 24.1 101.39   -7 Mostly Cloudy
09:00 Legend Double Dagger -5.9 -8.8 80 30 5 24.1 101.44   -8 LegendNANA
10:00 Legend Double Dagger -5.0 -7.9 80 7 3 24.1 101.51   -6 LegendNANA
11:00 Legend Double Dagger -4.3 -7.1 81 15 8 24.1 101.57   -8 Cloudy
12:00 Legend Double Dagger -3.9 -7.0 79 14 8 24.1 101.60   -7 LegendNANA
13:00 Legend Double Dagger -3.6 -7.1 77 36 2 24.1 101.65   -4 LegendNANA
14:00 Legend Double Dagger -5.5 -7.9 83 18 9 24.1 101.69   -10 Mainly Clear
15:00 Legend Double Dagger -6.1 -8.5 83 23 10 24.1 101.75   -11 LegendNANA
16:00 Legend Double Dagger -5.1 -7.9 81 24 8 24.1 101.78   -9 LegendNANA
17:00 Legend Double Dagger -4.8 -7.4 82 20 6 24.1 101.82   -8 Cloudy
18:00 Legend Double Dagger -5.2 -7.3 85 20 10 24.1 101.88   -10 LegendNANA
19:00 Legend Double Dagger -5.5 -7.5 86 20 8 24.1 101.93   -9 LegendNANA
20:00 Legend Double Dagger -5.1 -7.6 83 22 12 24.1 101.96   -10 Cloudy
21:00 Legend Double Dagger -5.0 -7.3 84 23 10 24.1 102.01   -9 LegendNANA
22:00 Legend Double Dagger -5.0 -6.8 87 28 9 24.1 102.05   -9 LegendNANA
23:00 Legend Double Dagger -5.2 -6.9 88 22 12 24.1 102.11   -10 Cloudy

Notes on Data Quality.

Legend

  • E = Estimated
  • M = Missing
  • NA = Not Available
  • ‡ = Partner data that is not subject to review by the National Climate Archives
Date modified: